This is the latest recevied weather packets stored in our database for station/object KQ4UPF. If no packets are shown the sender has not sent any weather packets the latest 10 day(s).
| Time | Temp. | Humidity | Pressure | Rain* | Wind** | Luminosity | Snow |
|---|---|---|---|---|---|---|---|
| 1777134141 | 22.22° C | 78% | 1011.1 hPa | 0 mm | - | 401 W/m² | - |
| 1777133838 | 22.22° C | 79% | 1011.4 hPa | 0 mm | - | 325 W/m² | - |
| 1777133534 | 21.67° C | 79% | 1011.2 hPa | 0 mm | - | 241 W/m² | - |
| 1777133228 | 22.22° C | 76% | 1011 hPa | 0 mm | - | 244 W/m² | - |
| 1777132928 | 22.78° C | 73% | 1011.1 hPa | 0 mm | - | 247 W/m² | - |
| 1777132624 | 23.33° C | 70% | 1011 hPa | 0 mm | - | 347 W/m² | - |
| 1777132321 | 23.33° C | 69% | 1010.8 hPa | 0 mm | - | 393 W/m² | - |
| 1777132017 | 23.33° C | 74% | 1010.9 hPa | 0 mm | - | 945 W/m² | - |
| 1777131716 | 22.22° C | 79% | 1010.9 hPa | 0 mm | - | 700 W/m² | - |
| 1777131415 | 21.67° C | 77% | 1010.7 hPa | 0 mm | - | 334 W/m² | - |
| 1777131114 | 21.11° C | 77% | 1011.1 hPa | 0 mm | - | 243 W/m² | - |
| 1777130810 | 21.67° C | 77% | 1010.8 hPa | 0 mm | - | 209 W/m² | - |
| 1777130507 | 21.67° C | 79% | 1010.9 hPa | 0 mm | - | 169 W/m² | - |
| 1777130203 | 21.67° C | 76% | 1010.9 hPa | 0 mm | - | 168 W/m² | - |
| 1777129899 | 21.67° C | 77% | 1010.8 hPa | 0 mm | - | 277 W/m² | - |
| 1777129594 | 22.22° C | 76% | 1010.9 hPa | 0 mm | - | 272 W/m² | - |
| 1777129293 | 21.67° C | 77% | 1010.5 hPa | 0 mm | - | 287 W/m² | - |
| 1777128989 | 21.67° C | 78% | 1010.8 hPa | 0 mm | - | 364 W/m² | - |
| 1777128685 | 21.11° C | 80% | 1010.8 hPa | 0 mm | - | 414 W/m² | - |
| 1777128384 | 21.11° C | 78% | 1010.6 hPa | 0 mm | - | 198 W/m² | - |
| 1777128080 | 21.11° C | 79% | 1010.5 hPa | 0 mm | - | 248 W/m² | - |
| 1777127778 | 21.11° C | 82% | 1010.4 hPa | 0 mm | - | 328 W/m² | - |
| 1777127475 | 20.56° C | 82% | 1010.5 hPa | 0 mm | - | 347 W/m² | - |
| 1777127171 | 20.56° C | 83% | 1010.5 hPa | 0 mm | - | 264 W/m² | - |
| 1777126866 | 20.56° C | 84% | 1010.5 hPa | 0 mm | - | 181 W/m² | - |
* Rain latest hour (hover to see other rain measurements)
** Current wind speed in m/s (hover to see current wind gust speed)